Погода в Светлогорске

Россия / Калининградская область     54°56′38″N   20°09′05″E
темп.,
°C
ветер,
м/с
пор.,
м/с
влажн.,
%
обл.,
%
осадки,
мм/ч
давл.,
гПа
погр.,
м
9 декабря, чт
чт923:00−4вюв10137196 0.0 1018404
02:00−4вюв111375100 0.0 1017392
05:00−5вюв11147646 0.0 1015378
08:00−5вюв10147779 0.0 1015418
11:00−4вюв91488100 0.0 1015450
14:00−2вюв9129090 0.0 1014447
17:00−1вюв11139398 0.0 1013427
20:00−2юв91393100 0.0 1013413
10 декабря, пт
пт1023:00−1юв9149498 0.0 1012430
02:00+1юв101593100 0.0 1010619
05:00+2вюв101592100 0.2 1007540
08:00+2юв101592100 0.4 1006698
11:00+2юв91599100 1.0 1005665
14:00+3юв101497100 1.6 1004760
17:00+3ююв81195100 0.1 1004699
20:00+3ююв6897100 0.3 1005492
11 декабря, сб
сб1123:00+2ю4593100 0.1 1006386
02:00+2ююз4485100 0.1 1007365
05:00+2ююз3380100 0.0 1009375
08:00+3зюз237496 0.0 1010528
11:00+3зсз2270100 0.0 1012730
14:00+4ссз2269100 0.0 1013852
17:00+4ссз4470100 0.0 1014865
20:00+5сз4571100 0.0 1016895
12 декабря, вс
вс1223:00+5сз6670100 0.0 10161024
02:00+4з6773100 0.1 1018999
05:00+4з6675100 0.1 1020682
08:00+3юз667643 0.1 1022564
11:00+2юз6676100 0.1 1024764
14:00+2ююз5676100 0.1 1024756
17:00+2ююз4474100 0.0 1025451
20:00+2ююв5477100 0.1 1026300
13 декабря, пн
пн1323:00+2ю5581100 0.0 1026297
02:00+3ююз4486100 0.0 1026364
05:00+3юз4486100 0.1 1026388
08:00+4зюз337877 0.1 1026448
11:00+5з336888 0.1 1027841
14:00+5зюз547998 0.1 1026559
17:00+5з4480100 0.0 1026468
20:00+5з3379100 0.1 1026465